H1 CPF 2 NER 2026 4 1 9 091 01 glonass129 H2 1106402 9129 37868 2026 4 1 0 0 0 2026 4 4 23 45 0 900 1 1 0 0 0 1 H9 10 0 61131 0.00000 0 11931001.605 22117789.486 4279759.576 10 0 61131 900.00000 0 12230711.831 22333867.654 1071018.247 10 0 61131 1800.00000 0 12348793.042 22182988.183 -2158576.608 10 0 61131 2700.00000 0 12236956.440 21694193.810 -5346091.125 10 0 61131 3600.00000 0 11854969.917 20907527.302 -8429333.243 10 0 61131 4500.00000 0 11172610.217 19872248.615 -11348083.865 10 0 61131 5400.00000 0 10171201.707 18644675.778 -14045293.420 10 0 61131 6300.00000 0 8844673.381 17285741.371 -16468218.352 10 0 61131 7200.00000 0 7200086.404 15858369.081 -18569473.120 10 0 61131 8100.00000 0 5257607.363 14424782.894 -20307975.180 10 0 61131 9000.00000 0 3049926.440 13043864.463 -21649762.819 10 0 61131 9900.00000 0 621143.866 11768672.097 -22568668.573 10 0 61131 10800.00000 0 -1974828.969 10644227.588 -23046834.338 10 0 61131 11700.00000 0 -4676286.431 9705665.208 -23075057.906 10 0 61131 12600.00000 0 -7416078.291 8976821.260 -22652964.396 10 0 61131 13500.00000 0 -10124192.754 8469323.109 -21788999.948 10 0 61131 14400.00000 0 -12730463.823 8182214.918 -20500248.908 10 0 61131 15300.00000 0 -15167288.925 8102133.919 -18812079.392 10 0 61131 16200.00000 0 -17372242.840 8204027.391 -16757625.731 10 0 61131 17100.00000 0 -19290478.870 8452377.390 -14377119.528 10 0 61131 18000.00000 0 -20876817.630 8802878.759 -11717084.025 10 0 61131 18900.00000 0 -22097437.697 9204496.979 -8829409.126 10 0 61131 19800.00000 0 -22931099.508 9601816.722 -5770326.474 10 0 61131 20700.00000 0 -23369853.937 9937580.243 -2599305.797 10 0 61131 21600.00000 0 -23419208.862 10155307.368 622105.143 10 0 61131 22500.00000 0 -23097749.789 10201886.151 3831473.969 10 0 61131 23400.00000 0 -22436233.322 10030025.175 6966687.223 10 0 61131 24300.00000 0 -21476193.899 9600465.009 9967141.127 10 0 61131 25200.00000 0 -20268123.993 8883856.867 12774897.438 10 0 61131 26100.00000 0 -18869304.999 7862230.841 15335783.380 10 0 61131 27000.00000 0 -17341379.760 6529993.293 17600416.134 10 0 61131 27900.00000 0 -15747767.536 4894412.431 19525134.151 10 0 61131 28800.00000 0 -14151028.068 2975572.066 21072819.351 10 0 61131 29700.00000 0 -12610282.823 805795.019 22213596.435 10 0 61131 30600.00000 0 -11178798.773 -1571441.051 22925397.583 10 0 61131 31500.00000 0 -9901833.248 -4103052.275 23194382.983 10 0 61131 32400.00000 0 -8814827.719 -6728299.941 23015209.870 10 0 61131 33300.00000 0 -7942024.341 -9381066.684 22391144.979 10 0 61131 34200.00000 0 -7295562.175 -11992366.279 21334017.640 10 0 61131 35100.00000 0 -6875090.756 -14492986.000 19864013.135 10 0 61131 36000.00000 0 -6667917.861 -16816154.617 18009308.447 10 0 61131 36900.00000 0 -6649686.616 -18900127.187 15805555.159 10 0 61131 37800.00000 0 -6785555.306 -20690580.382 13295217.015 10 0 61131 38700.00000 0 -7031832.273 -22142718.860 10526772.410 10 0 61131 39600.00000 0 -7337998.876 -23223004.159 7553795.066 10 0 61131 40500.00000 0 -7649036.662 -23910432.498 4433928.839 10 0 61131 41400.00000 0 -7907961.191 -24197305.995 1227775.336 10 0 61131 42300.00000 0 -8058455.331 -24089462.753 -2002284.524 10 0 61131 43200.00000 0 -8047489.564 -23605953.929 -5193311.892 10 0 61131 44100.00000 0 -7827816.544 -22778179.483 -8283049.631 10 0 61131 45000.00000 0 -7360231.651 -21648517.660 -11211154.526 10 0 61131 45900.00000 0 -6615500.812 -20268505.346 -13920396.133 10 0 61131 46800.00000 0 -5575870.683 -18696646.117 -16357796.749 10 0 61131 47700.00000 0 -4236094.207 -16995939.285 -18475688.011 10 0 61131 48600.00000 0 -2603925.335 -15231235.502 -20232661.517 10 0 61131 49500.00000 0 -700059.813 -13466532.149 -21594393.200 10 0 61131 50400.00000 0 1442477.080 -11762324.283 -22534324.052 10 0 61131 51300.00000 0 3779470.880 -10173124.353 -23034183.162 10 0 61131 52200.00000 0 6257138.616 -8745256.255 -23084342.601 10 0 61131 53100.00000 0 8814161.317 -7515017.121 -22683997.445 10 0 61131 54000.00000 0 11384042.309 -6507283.965 -21841168.133 10 0 61131 54900.00000 0 13897691.465 -5734622.752 -20572526.154 10 0 61131 55800.00000 0 16286126.208 -5196935.609 -18903047.809 10 0 61131 56700.00000 0 18483175.504 -4881658.597 -16865504.347 10 0 61131 57600.00000 0 20428073.425 -4764498.837 -14499800.060 10 0 61131 58500.00000 0 22067834.010 -4810676.815 -11852172.921 10 0 61131 59400.00000 0 23359308.998 -4976618.438 -8974274.961 10 0 61131 60300.00000 0 24270843.868 -5212022.643 -5922151.739 10 0 61131 61200.00000 0 24783464.975 -5462214.983 -2755142.014 10 0 61131 62100.00000 0 24891550.654 -5670686.168 465280.073 10 0 61131 63000.00000 0 24602960.943 -5781707.435 3676697.305 10 0 61131 63900.00000 0 23938623.242 -5742912.173 6816952.950 10 0 61131 64800.00000 0 22931593.776 -5507735.361 9825342.634 10 0 61131 65700.00000 0 21625636.066 -5037608.987 12643772.399 10 0 61131 66600.00000 0 20073377.233 -4303822.308 15217861.806 10 0 61131 67500.00000 0 18334119.637 -3288970.069 17497972.540 10 0 61131 68400.00000 0 16471398.891 -1987928.993 19440144.653 10 0 61131 69300.00000 0 14550389.004 -408322.294 21006924.423 10 0 61131 70200.00000 0 12635261.041 1429547.272 22168069.940 10 0 61131 71100.00000 0 10786603.061 3493293.785 22901122.600 10 0 61131 72000.00000 0 9059006.372 5739550.748 23191834.831 10 0 61131 72900.00000 0 7498916.260 8115536.283 23034446.638 10 0 61131 73800.00000 0 6142834.662 10561018.776 22431805.755 10 0 61131 74700.00000 0 5015948.272 13010604.464 21395328.533 10 0 61131 75600.00000 0 4131238.571 15396255.177 19944801.048 10 0 61131 76500.00000 0 3489110.958 17649934.569 18108022.455 10 0 61131 77400.00000 0 3077559.275 19706275.163 15920295.192 10 0 61131 78300.00000 0 2872860.139 21505156.834 13423769.409 10 0 61131 79200.00000 0 2840769.593 22994089.934 10666651.750 10 0 61131 80100.00000 0 2938173.481 24130303.278 7702291.590 10 0 61131 81000.00000 0 3115123.512 24882448.529 4588160.560 10 0 61131 81900.00000 0 3317174.067 25231847.725 1384743.904 10 0 61131 82800.00000 0 3487921.290 25173229.255 -1845635.312 10 0 61131 83700.00000 0 3571636.448 24714918.888 -5040036.077 10 0 61131 84600.00000 0 3515880.682 23878475.474 -8136138.810 10 0 61131 85500.00000 0 3273988.181 22697784.740 -11073478.553 10 0 61132 0.00000 0 2807309.882 21217648.205 -13794645.822 10 0 61132 900.00000 0 2087119.279 19491925.322 -16246430.994 10 0 61132 1800.00000 0 1096097.159 17581309.360 -18380884.047 10 0 61132 2700.00000 0 -170671.270 15550829.044 -20156271.832 10 0 61132 3600.00000 0 -1705230.978 13467184.385 -21537908.769 10 0 61132 4500.00000 0 -3486845.114 11396029.783 -22498844.888 10 0 61132 5400.00000 0 -5482633.893 9399320.371 -23020396.800 10 0 61132 6300.00000 0 -7648737.905 7532834.447 -23092510.902 10 0 61132 7200.00000 0 -9931956.760 5843976.924 -22713951.963 10 0 61132 8100.00000 0 -12271793.538 4369956.073 -21892314.106 10 0 61132 9000.00000 0 -14602818.277 3136409.432 -20643854.966 10 0 61132 9900.00000 0 -16857250.252 2156535.061 -18993157.659 10 0 61132 10800.00000 0 -18967649.819 1430762.345 -16972628.638 10 0 61132 11700.00000 0 -20869606.382 946973.322 -14621842.897 10 0 61132 12600.00000 0 -22504309.615 681261.992 -11986750.946 10 0 61132 13500.00000 0 -23820896.619 599196.259 -9118764.650 10 0 61132 14400.00000 0 -24778477.658 657526.098 -6073741.134 10 0 61132 15300.00000 0 -25347757.170 806263.056 -2910885.835 10 0 61132 16200.00000 0 -25512184.203 991041.107 308403.056 10 0 61132 17100.00000 0 -25268586.485 1155657.643 3521725.806 10 0 61132 18000.00000 0 -24627264.078 1244686.635 6666884.706 10 0 61132 18900.00000 0 -23611541.082 1206053.691 9683077.082 10 0 61132 19800.00000 0 -22256796.181 993465.122 12512055.510 10 0 61132 20700.00000 0 -20609014.024 568589.797 15099234.075 10 0 61132 21600.00000 0 -18722918.668 -97096.629 17394721.038 10 0 61132 22500.00000 0 -16659766.896 -1020881.290 19354259.934 10 0 61132 23400.00000 0 -14484892.456 -2207856.485 20940063.036 10 0 61132 24300.00000 0 -12265101.898 -3650474.494 22121523.158 10 0 61132 25200.00000 0 -10066028.113 -5328633.720 22875791.905 10 0 61132 26100.00000 0 -7949549.171 -7210293.645 23188214.578 10 0 61132 27000.00000 0 -5971377.132 -9252594.812 23052614.222 10 0 61132 27900.00000 0 -4178914.716 -11403439.764 22471419.492 10 0 61132 28800.00000 0 -2609467.090 -13603472.134 21455633.336 10 0 61132 29700.00000 0 -1288881.919 -15788374.749 20024641.879 10 0 61132 30600.00000 0 -230673.823 -17891394.243 18205865.383 10 0 61132 31500.00000 0 564329.965 -19845989.693 16034255.772 10 0 61132 32400.00000 0 1107807.083 -21588496.918 13551647.931 10 0 61132 33300.00000 0 1423226.962 -23060698.378 10805974.815 10 0 61132 34200.00000 0 1544635.564 -24212191.418 7850359.291 10 0 61132 35100.00000 0 1514987.555 -25002454.907 4742098.413 10 0 61132 36000.00000 0 1384095.063 -25402525.980 1541558.569 10 0 61132 36900.00000 0 1206279.026 -25396214.186 -1688997.608 10 0 61132 37800.00000 0 1037822.584 -24980799.328 -4886629.594 10 0 61132 38700.00000 0 934335.281 -24167180.950 -7988958.053 10 0 61132 39600.00000 0 948141.470 -22979470.746 -10935398.986 10 0 61132 40500.00000 0 1125805.960 -21454043.149 -13668367.026 10 0 61132 41400.00000 0 1505904.606 -19638082.875 -16134422.261 10 0 61132 42300.00000 0 2117137.293 -17587690.216 -18285335.989 10 0 61132 43200.00000 0 2976866.112 -15365624.131 -20079052.556 10 0 61132 44100.00000 0 4090143.216 -13038779.050 -21480526.784 10 0 61132 45000.00000 0 5449271.443 -10675502.834 -22462419.283 10 0 61132 45900.00000 0 7033917.712 -8342870.045 -23005635.274 10 0 61132 46800.00000 0 8811775.109 -6104026.385 -23099696.124 10 0 61132 47700.00000 0 10739745.776 -4015716.707 -22742936.490 10 0 61132 48600.00000 0 12765594.323 -2126100.652 -21942523.937 10 0 61132 49500.00000 0 14830001.256 -472947.135 -20714301.618 10 0 61132 50400.00000 0 16868928.976 917717.775 -19082458.443 10 0 61132 51300.00000 0 18816199.777 2032454.845 -17079034.675 10 0 61132 52200.00000 0 20606176.652 2870714.802 -14743274.233 10 0 61132 53100.00000 0 22176433.708 3444591.037 -12120838.011 10 0 61132 54000.00000 0 23470304.033 3778035.789 -9262895.163 10 0 61132 54900.00000 0 24439198.565 3905576.298 -6225111.501 10 0 61132 55800.00000 0 25044599.697 3870588.283 -3066555.993 10 0 61132 56700.00000 0 25259647.596 3723202.320 151452.461 10 0 61132 57600.00000 0 25070254.695 3517933.519 3366534.997 10 0 61132 58500.00000 0 24475703.856 3311135.849 6516456.267 10 0 61132 59400.00000 0 23488707.347 3158388.957 9540318.463 10 0 61132 60300.00000 0 22134926.170 3111927.428 12379723.609 10 0 61132 61200.00000 0 20451971.330 3218219.887 14979882.916 10 0 61132 62100.00000 0 18487929.658 3515798.544 17290653.466 10 0 61132 63000.00000 0 16299475.788 4033428.965 19267484.169 10 0 61132 63900.00000 0 13949648.258 4788695.567 20872254.814 10 0 61132 64800.00000 0 11505380.838 5787061.215 22073994.098 10 0 61132 65700.00000 0 9034889.583 7021439.953 22849464.618 10 0 61132 66600.00000 0 6605021.663 8472301.210 23183604.935 10 0 61132 67500.00000 0 4278673.287 10108302.359 23069821.106 10 0 61132 68400.00000 0 2112381.300 11887425.346 22510122.227 10 0 61132 69300.00000 0 154186.157 13758572.608 21515096.905 10 0 61132 70200.00000 0 -1558146.637 15663558.822 20103729.918 10 0 61132 71100.00000 0 -2998473.688 17539418.583 18303060.807 10 0 61132 72000.00000 0 -4153133.578 19320936.624 16147688.764 10 0 61132 72900.00000 0 -5021283.117 20943297.304 13679130.878 10 0 61132 73800.00000 0 -5614694.893 22344744.224 10945043.645 10 0 61132 74700.00000 0 -5957023.194 23469139.247 7998320.465 10 0 61132 75600.00000 0 -6082567.659 24268313.301 4896080.762 10 0 61132 76500.00000 0 -6034585.373 24704108.971 1698568.966 10 0 61132 77400.00000 0 -5863221.715 24750026.897 -1532015.805 10 0 61132 78300.00000 0 -5623147.119 24392404.046 -4732736.508 10 0 61132 79200.00000 0 -5371000.230 23631071.338 -7841156.879 10 0 61132 80100.00000 0 -5162746.989 22479460.094 -10796576.481 10 0 61132 81000.00000 0 -5051069.514 20964150.370 -13541236.129 10 0 61132 81900.00000 0 -5082897.905 19123878.345 -16021468.091 10 0 61132 82800.00000 0 -5297192.378 17008043.483 -18188766.353 10 0 61132 83700.00000 0 -5723072.451 14674777.966 -20000754.036 10 0 61132 84600.00000 0 -6378375.009 12188659.986 -21422027.320 10 0 61132 85500.00000 0 -7268704.363 9618167.934 -22424858.028 10 0 61133 0.00000 0 -8387015.919 7032983.876 -22989740.290 10 0 61133 900.00000 0 -9713752.511 4501259.349 -23105770.538 10 0 61133 1800.00000 0 -11217526.286 2086962.677 -22770852.894 10 0 61133 2700.00000 0 -12856318.929 -152585.011 -21991727.634 10 0 61133 3600.00000 0 -14579147.275 -2168878.414 -20783822.297 10 0 61133 4500.00000 0 -16328123.507 -3924012.656 -19170930.069 10 0 61133 5400.00000 0 -18040821.753 -5392010.428 -17184723.145 10 0 61133 6300.00000 0 -19652850.295 -6559638.412 -14864112.191 10 0 61133 7200.00000 0 -21100520.162 -7426681.701 -12254466.084 10 0 61133 8100.00000 0 -22323497.365 -8005668.083 -9406708.730 10 0 61133 9000.00000 0 -23267327.231 -8321057.445 -6376312.024 10 0 61133 9900.00000 0 -23885725.288 -8407933.862 -3222205.842 10 0 61133 10800.00000 0 -24142539.539 -8310258.669 -5627.201 10 0 61133 11700.00000 0 -24013303.300 -8078760.733 3211068.472 10 0 61133 12600.00000 0 -23486315.292 -7768554.718 6365610.714 10 0 61133 13500.00000 0 -22563203.695 -7436588.792 9397009.035 10 0 61133 14400.00000 0 -21258952.407 -7139029.530 12246717.278 10 0 61133 15300.00000 0 -19601389.950 -6928693.622 14859746.014 10 0 61133 16200.00000 0 -17630163.354 -6852633.318 17185703.188 10 0 61133 17100.00000 0 -15395240.133 -6949975.636 19179744.871 10 0 61133 18000.00000 0 -12955000.251 -7250104.503 20803419.847 10 0 61133 18900.00000 0 -10373996.203 -7771260.703 22025393.811 10 0 61133 19800.00000 0 -7720472.278 -8519617.395 22822041.085 10 0 61133 20700.00000 0 -5063743.512 -9488869.656 23177893.845 10 0 61133 21600.00000 0 -2471540.244 -10660355.797 23085941.133 10 0 61133 22500.00000 0 -7425.545 -12003706.779 22547772.125 10 0 61133 23400.00000 0 2271609.943 -13477998.762 21573560.411 10 0 61133 24300.00000 0 4317278.076 -15033363.315 20181888.459 10 0 61133 25200.00000 0 6091761.182 -16612991.060 18399413.849 10 0 61133 26100.00000 0 7569045.068 -18155447.933 16260381.525 10 0 61133 27000.00000 0 8735761.460 -19597209.792 13805989.006 10 0 61133 27900.00000 0 9591503.976 -20875311.244 11083614.260 10 0 61133 28800.00000 0 10148603.156 -21929998.711 8145918.913 10 0 61133 29700.00000 0 10431368.524 -22707276.509 5049842.221 10 0 61133 30600.00000 0 10474828.089 -23161238.030 1855503.963 10 0 61133 31500.00000 0 10323017.203 -23256082.116 -1374963.054 10 0 61133 32400.00000 0 10026888.366 -22967727.177 -4578628.097 10 0 61133 33300.00000 0 9641930.341 -22284952.074 -7693000.778 10 0 61133 34200.00000 0 9225598.110 -21210012.557 -10657266.946 10 0 61133 35100.00000 0 8834664.055 -19758704.387 -13413496.213 10 0 61133 36000.00000 0 8522604.616 -17959868.063 -15907795.473 10 0 61133 36900.00000 0 8337135.709 -15854354.245 -18091383.636 10 0 61133 37800.00000 0 8318003.903 -13493492.480 -19921564.558 10 0 61133 38700.00000 0 8495129.417 -10937127.382 -21362577.398 10 0 61133 39600.00000 0 8887181.683 -8251305.269 -22386306.416 10 0 61133 40500.00000 0 9500649.327 -5505709.261 -22972835.509 10 0 61133 41400.00000 0 10329444.827 -2770951.541 -23110836.323 10 0 61133 42300.00000 0 11355060.798 -115837.396 -22797782.500 10 0 61133 43200.00000 0 12547270.877 2395283.572 -22039986.537 10 0 61133 44100.00000 0 13865344.707 4704967.901 -20852459.495 10 0 61133 45000.00000 0 15259724.364 6764828.138 -19258597.617 10 0 61133 45900.00000 0 16674090.054 8537293.257 -17289703.484 10 0 61133 46800.00000 0 18047726.390 9996907.840 -14984352.647 10 0 61133 47700.00000 0 19318088.222 11131118.138 -12387619.783 10 0 61133 48600.00000 0 20423456.883 11940515.239 -9550181.065 10 0 61133 49500.00000 0 21305574.483 12438528.643 -6527311.720 10 0 61133 50400.00000 0 21912145.384 12650586.719 -3377799.556 10 0 61133 51300.00000 0 22199100.194 12612782.806 -162796.595 10 0 61133 52200.00000 0 22132528.214 12370106.085 3055368.328 10 0 61133 53100.00000 0 21690198.630 11974314.058 6214392.720 10 0 61133 54000.00000 0 20862608.325 11481537.816 9253196.355 10 0 61133 54900.00000 0 19653514.116 10949721.603 12113087.602 10 0 61133 55800.00000 0 18079928.621 10436004.294 14738878.827 10 0 61133 56700.00000 0 16171580.987 9994152.089 17079930.974 10 0 61133 57600.00000 0 13969865.436 9672148.865 19091109.098 10 0 61133 58500.00000 0 11526321.129 9510043.685 20733632.486 10 0 61133 59400.00000 0 8900705.543 9538144.050 21975805.023 10 0 61133 60300.00000 0 6158739.550 9775629.169 22793613.613 10 0 61133 61200.00000 0 3369615.403 10229640.423 23171184.534 10 0 61133 62100.00000 0 603368.133 10894886.916 23101089.919 10 0 61133 63000.00000 0 -2071783.710 11753783.245 22584498.682 10 0 61133 63900.00000 0 -4592020.553 12777115.194 21631168.595 10 0 61133 64800.00000 0 -6900322.954 13925207.664 20259278.531 10 0 61133 65700.00000 0 -8948593.633 15149548.625 18495102.361 10 0 61133 66600.00000 0 -10699413.303 16394803.925 16372528.625 10 0 61133 67500.00000 0 -12127357.538 17601141.271 13932432.743 10 0 61133 68400.00000 0 -13219819.336 18706768.149 11221911.379 10 0 61133 69300.00000 0 -13977301.910 19650578.659 8293391.431 10 0 61133 70200.00000 0 -14413168.008 20374798.593 5203628.944 10 0 61133 71100.00000 0 -14552854.697 20827517.022 2012615.972 10 0 61133 72000.00000 0 -14432585.196 20964996.343 -1217584.022 10 0 61133 72900.00000 0 -14097631.033 20753661.106 -4424049.569 10 0 61133 73800.00000 0 -13600197.465 20171678.883 -7544238.991 10 0 61133 74700.00000 0 -12997021.833 19210063.263 -10517227.065 10 0 61133 75600.00000 0 -12346787.523 17873249.264 -13284914.608 10 0 61133 76500.00000 0 -11707464.656 16179113.999 -15793185.252 10 0 61133 77400.00000 0 -11133692.303 14158439.422 -17992984.611 10 0 61133 78300.00000 0 -10674315.459 11853838.161 -19841298.695 10 0 61133 79200.00000 0 -10370183.431 9318186.789 -21302010.706 10 0 61133 80100.00000 0 -10252304.940 6612632.284 -22346618.040 10 0 61133 81000.00000 0 -10340439.608 3804255.872 -22954794.671 10 0 61133 81900.00000 0 -10642186.365 963493.107 -23114787.540 10 0 61133 82800.00000 0 -11152607.628 -1838580.656 -22823639.355 10 0 61133 83700.00000 0 -11854404.688 -4532984.790 -22087234.058 10 0 61133 84600.00000 0 -12718635.905 -7055472.943 -20920165.070 10 0 61133 85500.00000 0 -13705945.888 -9348967.077 -19345430.158 10 0 61134 0.00000 0 -14768251.864 -11365684.669 -17393960.600 10 0 61134 900.00000 0 -15850814.816 -13068872.460 -15103994.302 10 0 61134 1800.00000 0 -16894604.749 -14434073.661 -12520309.508 10 0 61134 2700.00000 0 -17838860.745 -15449881.866 -9693332.132 10 0 61134 3600.00000 0 -18623735.402 -16118150.543 -6678138.123 10 0 61134 4500.00000 0 -19192912.219 -16453653.952 -3533370.608 10 0 61134 5400.00000 0 -19496085.639 -16483217.018 -320094.010 10 0 61134 6300.00000 0 -19491199.976 -16244353.986 2899391.987 10 0 61134 7200.00000 0 -19146354.136 -15783475.806 6062755.377 10 0 61134 8100.00000 0 -18441293.516 -15153743.686 9108828.650 10 0 61134 9000.00000 0 -17368428.023 -14412660.267 11978777.076 10 0 61134 9900.00000 0 -15933334.992 -13619500.002 14617217.058 10 0 61134 10800.00000 0 -14154727.078 -12832686.213 16973264.601 10 0 61134 11700.00000 0 -12063887.052 -12107223.749 19001495.565 10 0 61134 12600.00000 0 -9703592.970 -11492293.281 20662801.262 10 0 61134 13500.00000 0 -7126577.598 -11029106.171 21925124.951 10 0 61134 14400.00000 0 -4393584.484 -10749107.948 22764066.934 10 0 61134 15300.00000 0 -1571099.097 -10672604.099 23163348.047 10 0 61134 16200.00000 0 1271153.694 -10807864.799 23115123.599 10 0 61134 17100.00000 0 4062845.138 -11150745.876 22620142.011 10 0 61134 18000.00000 0 6735704.956 -11684842.560 21687744.690 10 0 61134 18900.00000 0 9226102.942 -12382171.055 20335706.087 10 0 61134 19800.00000 0 11477444.976 -13204351.479 18589915.265 10 0 61134 20700.00000 0 13442285.438 -14104245.143 16483902.964 10 0 61134 21600.00000 0 15084068.840 -15027980.046 14058220.825 10 0 61134 22500.00000 0 16378428.010 -15917281.954 11359682.204 10 0 61134 23400.00000 0 17313983.703 -16712014.848 8440476.936 10 0 61134 24300.00000 0 17892610.816 -17352824.870 5357175.218 10 0 61134 25200.00000 0 18129158.331 -17783776.436 2169638.490 10 0 61134 26100.00000 0 18050633.078 -17954868.397 -1060142.211 10 0 61134 27000.00000 0 17694880.250 -17824322.198 -4269257.833 10 0 61134 27900.00000 0 17108815.429 -17360542.758 -7395118.534 10 0 61134 28800.00000 0 16346282.511 -16543666.166 -10376691.039 10 0 61134 29700.00000 0 15465628.603 -15366625.466 -13155710.195 10 0 61134 30600.00000 0 14527099.633 -13835686.384 -15677838.958 10 0 61134 31500.00000 0 13590168.653 -11970427.587 -17893751.940 10 0 61134 32400.00000 0 12710911.984 -9803164.163 -19760119.277 10 0 61134 33300.00000 0 11939546.439 -7377837.106 -21240469.800 10 0 61134 34200.00000 0 11318233.847 -4748414.931 -22305915.231 10 0 61134 35100.00000 0 10879247.356 -1976874.508 -22935720.367 10 0 61134 36000.00000 0 10643578.074 869153.582 -23117707.743 10 0 61134 36900.00000 0 10620041.290 3718975.598 -22848488.974 10 0 61134 37800.00000 0 10804919.624 6501551.656 -22133518.876 10 0 61134 38700.00000 0 11182157.157 9148224.737 -20986972.248 10 0 61134 39600.00000 0 11724094.683 11595347.090 -19431447.039 10 0 61134 40500.00000 0 12392713.034 13786694.340 -17497501.153 10 0 61134 41400.00000 0 13141329.778 15675567.187 -15223033.560 10 0 61134 42300.00000 0 13916675.439 17226494.245 -12652523.447 10 0 61134 43200.00000 0 14661259.627 18416467.002 -9836143.877 10 0 61134 44100.00000 0 15315925.604 19235657.997 -6828768.686 10 0 61134 45000.00000 0 15822484.448 19687595.260 -3688893.285 10 0 61134 45900.00000 0 16126317.210 19788789.152 -477491.349 10 0 61134 46800.00000 0 16178835.556 19567830.507 2743169.775 10 0 61134 47700.00000 0 15939697.904 19064000.935 5910731.681 10 0 61134 48600.00000 0 15378688.966 18325456.025 8963942.524 10 0 61134 49500.00000 0 14477185.034 17407059.347 11843827.188 10 0 61134 50400.00000 0 13229144.930 16367958.990 14494808.545 10 0 61134 51300.00000 0 11641586.254 15269008.216 16865759.784 10 0 61134 52200.00000 0 9734527.760 14170137.486 18910969.372 10 0 61134 53100.00000 0 7540400.381 13127786.457 20591002.132 10 0 61134 54000.00000 0 5102950.840 12192501.544 21873441.855 10 0 61134 54900.00000 0 2475682.051 11406797.461 22733503.065 10 0 61134 55800.00000 0 -280106.999 10803370.272 23154501.619 10 0 61134 56700.00000 0 -3097603.230 10403735.142 23128176.079 10 0 61134 57600.00000 0 -5906991.815 10217344.851 22654854.008 10 0 61134 58500.00000 0 -8638097.888 10241225.830 21743459.639 10 0 61134 59400.00000 0 -11223051.128 10460147.653 20411361.706 10 0 61134 60300.00000 0 -13598865.285 10847320.310 18684062.693 10 0 61134 61200.00000 0 -15709827.406 11365592.072 16594733.336 10 0 61134 62100.00000 0 -17509598.503 11969099.963 14183598.914 10 0 61134 63000.00000 0 -18962938.377 12605305.827 11497186.608 10 0 61134 63900.00000 0 -20046981.969 13217334.309 8587446.136 10 0 61134 64800.00000 0 -20752012.568 13746515.620 5510758.707 10 0 61134 65700.00000 0 -21081697.726 14135026.386 2326851.996 10 0 61134 66600.00000 0 -21052776.028 14328516.657 -902358.467 10 0 61134 67500.00000 0 -20694206.113 14278610.667 -4113979.036 10 0 61134 68400.00000 0 -20045812.407 13945173.387 -7245374.560 10 0 61134 69300.00000 0 -19156483.882 13298244.134 -10235406.396 10 0 61134 70200.00000 0 -18082001.866 12319552.199 -13025645.887 10 0 61134 71100.00000 0 -16882589.322 11003547.132 -15561537.509 10 0 61134 72000.00000 0 -15620286.533 9357897.050 -17793486.740 10 0 61134 72900.00000 0 -14356265.891 7403431.365 -19677849.325 10 0 61134 73800.00000 0 -13148201.283 5173528.373 -21177800.801 10 0 61134 74700.00000 0 -12047805.222 2712972.306 -22264067.850 10 0 61134 75600.00000 0 -11098639.412 76327.415 -22915506.301 10 0 61134 76500.00000 0 -10334292.333 -2674102.457 -23119514.058 10 0 61134 77400.00000 0 -9777001.257 -5470642.600 -22872271.013 10 0 61134 78300.00000 0 -9436776.582 -8242844.302 -22178801.821 10 0 61134 79200.00000 0 -9311064.370 -10920200.254 -21052861.263 10 0 61134 80100.00000 0 -9384959.693 -13434864.128 -19516645.725 10 0 61134 81000.00000 0 -9631959.542 -15724260.315 -17600337.896 10 0 61134 81900.00000 0 -10015221.069 -17733474.962 -15341495.189 10 0 61134 82800.00000 0 -10489269.399 -19417329.203 -12784295.471 10 0 61134 83700.00000 0 -11002080.476 -20742049.487 -9978656.450 10 0 61134 84600.00000 0 -11497448.847 -21686467.346 -6979247.328 10 0 61134 85500.00000 0 -11917538.770 -22242701.085 -3844413.320 99